Location: Dal�� Lhota
(48.7500°N, 14.0167°E)
Time: 16:31:04
(UTC+00:00)

Explorer 7 - Pass Details

Date: 08 August 2021
Orbit: 484 x 676 km, 50.3° (Epoch: 20 September)

Event Time Altitude Azimuth Distance (km) Brightness Sun altitude
Rises 07:26:37 0° 286° (WNW) 2,626 9.8 34.4°
Reaches altitude 10° 07:29:01 10° 273° (W) 1,764 9.0 34.7°
Maximum altitude 07:32:21 26° 216° (SW) 1,098 8.4 35.3°
Drops below altitude 10° 07:35:51 10° 160° (SSE) 1,850 10.1 35.8°
Sets 07:38:26 0° 148° (SSE) 2,783 11.0 36.2°
